This demonstration page uses our WeatherBlox Daily Observations layout. Learn more.

Left ArrowRight Arrow

36.19886, -115.1175

Hourly Observations for August 20, 2021

Temp ( °F °C ) Dew Point ( °F °C ) Humidity (%) Winds ( mph kmh ) Pressure ( in mb ) Visibility ( mi km ) Precip ( " mm )
12:53 am 00:53 Clear with Smoke 81 27.2 36 2.2 20 20 WNW 7 11 29.80 1009 9 14 0.00 0.00
1:53 am 01:53 Clear with Smoke 80 26.7 33 0.6 18 18 NW 5 7 29.80 1009 10 16 0.00 0.00
2:53 am 02:53 Clear with Smoke 79 26.1 31 -0.6 17 17 NNW 5 7 29.80 1009 10 16 0.00 0.00
3:53 am 03:53 Clear with Smoke 77 25 33 0.6 20 20 WNW 5 7 29.81 1010 10 16 0.00 0.00
4:53 am 04:53 Clear with Smoke 76 24.4 36 2.2 23 23 W 3 6 29.82 1010 10 16 0.00 0.00
5:53 am 05:53 Clear with Smoke 74 23.3 36 2.2 25 25 NNW 3 6 29.84 1010 10 16 0.00 0.00
6:53 am 06:53 Sunny with Smoke 74 23.3 35 1.7 24 24 WNW 5 7 29.85 1011 10 16 0.00 0.00
7:53 am 07:53 Sunny with Smoke 79 26.1 40 4.4 25 25 SSE 5 7 29.86 1011 10 16 0.00 0.00
8:53 am 08:53 Sunny with Smoke 82 27.8 39 3.9 22 22 VRB 6 9 29.87 1012 10 16 0.00 0.00
9:53 am 09:53 Sunny with Smoke 87 30.6 40 4.4 19 19 E 5 7 29.86 1011 10 16 0.00 0.00
10:53 am 10:53 Sunny with Smoke 88 31.1 42 5.6 20 20 VRB 5 7 29.86 1011 10 16 0.00 0.00
11:53 am 11:53 Sunny with Smoke 91 32.8 47 8.3 22 22 VRB 3 6 29.84 1010 10 16 0.00 0.00
12:53 pm 12:53 Sunny with Smoke 91 32.8 46 7.8 21 21 VRB 6 9 29.82 1010 10 16 0.00 0.00
1:53 pm 13:53 Sunny with Smoke 93 33.9 46 7.8 20 20 undefined N/A 29.79 1009 10 16 0.00 0.00
2:53 pm 14:53 Sunny with Smoke 94 34.4 46 7.8 19 19 Calm 29.76 1008 10 16 0.00 0.00
3:53 pm 15:53 Sunny with Smoke 95 35 45 7.2 18 18 SW 9 15 29.73 1007 10 16 0.00 0.00
4:53 pm 16:53 Sunny with Smoke 96 35.6 44 6.7 17 17 NW 6 9 29.71 1006 10 16 0.00 0.00
5:53 pm 17:53 Sunny with Smoke 95 35 43 6.1 17 17 VRB 3 6 29.70 1006 10 16 0.00 0.00
6:53 pm 18:53 Sunny with Smoke 95 35 41 5 15 15 ESE 9 15 29.68 1005 10 16 0.00 0.00
7:53 pm 19:53 Clear with Smoke 93 33.9 41 5 16 16 ESE 15 24 29.69 1006 10 16 0.00 0.00
8:53 pm 20:53 Clear with Smoke 92 33.3 45 7.2 20 20 SSE 18 30 29.71 1006 10 16 0.00 0.00
9:53 pm 21:53 Clear with Smoke 90 32.2 46 7.8 22 22 S 12 19 29.72 1006 10 16 0.00 0.00
10:53 pm 22:53 Clear with Smoke 89 31.7 45 7.2 22 22 S 8 13 29.72 1007 10 16 0.00 0.00
11:53 pm 23:53 Clear with Smoke 88 31.1 46 7.8 23 23 S 9 15 29.72 1007 10 16 0.00 0.00

Powered by AerisWeather